TimeEDT,TemperatureF,Dew PointF,Humidity,Sea Level PressureIn,VisibilityMPH,Wind Direction,Wind SpeedMPH,Gust SpeedMPH,PrecipitationIn,Events,Conditions,WindDirDegrees,DateUTC
12:54 AM,57.9,55.0,90,29.91,10.0,Calm,Calm,-,N/A,,Overcast,0,2013-09-05 04:54:00
1:54 AM,59.0,55.0,87,29.91,9.0,Calm,Calm,-,0.01,Rain,Light Rain,0,2013-09-05 05:54:00
2:54 AM,61.0,55.9,83,29.89,10.0,SW,5.8,-,0.00,,Overcast,220,2013-09-05 06:54:00
3:54 AM,63.0,57.0,81,29.89,10.0,WSW,4.6,-,N/A,,Overcast,240,2013-09-05 07:54:00
4:02 AM,62.6,57.2,82,29.91,10.0,SW,5.8,-,N/A,,Overcast,230,2013-09-05 08:02:00
4:51 AM,62.6,57.2,82,29.91,10.0,WSW,4.6,-,N/A,,Overcast,240,2013-09-05 08:51:00
4:54 AM,63.0,57.0,81,29.90,10.0,WSW,4.6,-,N/A,,Overcast,250,2013-09-05 08:54:00
5:23 AM,62.6,57.2,82,29.92,10.0,WSW,3.5,-,N/A,,Overcast,240,2013-09-05 09:23:00
5:35 AM,62.6,57.2,82,29.92,10.0,SW,4.6,-,N/A,,Overcast,230,2013-09-05 09:35:00
5:54 AM,62.1,57.0,84,29.90,10.0,SW,5.8,-,N/A,,Overcast,220,2013-09-05 09:54:00
6:02 AM,62.6,57.2,82,29.92,10.0,SW,5.8,-,N/A,,Mostly Cloudy,230,2013-09-05 10:02:00
6:51 AM,62.6,57.2,82,29.94,10.0,Variable,5.8,-,N/A,,Overcast,0,2013-09-05 10:51:00
6:54 AM,62.1,57.9,86,29.94,10.0,NW,4.6,-,N/A,,Overcast,320,2013-09-05 10:54:00
7:13 AM,60.8,57.2,88,29.96,10.0,NW,5.8,-,N/A,,Overcast,320,2013-09-05 11:13:00
7:20 AM,60.8,57.2,88,29.97,10.0,NNW,8.1,-,N/A,,Overcast,340,2013-09-05 11:20:00
7:35 AM,59.0,53.6,82,29.97,10.0,NW,8.1,-,N/A,,Mostly Cloudy,320,2013-09-05 11:35:00
7:37 AM,59.0,53.6,82,29.97,10.0,NNW,6.9,-,N/A,,Scattered Clouds,330,2013-09-05 11:37:00
7:54 AM,57.9,51.1,78,29.98,10.0,NW,6.9,-,N/A,,Clear,320,2013-09-05 11:54:00
8:54 AM,57.9,48.9,72,30.00,10.0,Calm,Calm,-,N/A,,Partly Cloudy,0,2013-09-05 12:54:00
9:54 AM,59.0,48.0,67,30.01,10.0,NNW,4.6,-,N/A,,Partly Cloudy,330,2013-09-05 13:54:00
10:54 AM,64.0,45.0,50,30.02,10.0,NNW,9.2,17.3,N/A,,Clear,340,2013-09-05 14:54:00
11:54 AM,64.0,43.0,46,30.03,10.0,NW,9.2,-,N/A,,Clear,320,2013-09-05 15:54:00
12:54 PM,64.9,42.1,43,30.03,10.0,NW,8.1,17.3,N/A,,Clear,310,2013-09-05 16:54:00
1:54 PM,66.0,43.0,43,30.03,10.0,WNW,5.8,-,N/A,,Partly Cloudy,300,2013-09-05 17:54:00
2:54 PM,66.9,37.0,33,30.04,10.0,NNW,9.2,-,N/A,,Partly Cloudy,340,2013-09-05 18:54:00
3:54 PM,66.9,37.0,33,30.04,10.0,NNW,5.8,-,N/A,,Clear,340,2013-09-05 19:54:00
4:54 PM,64.0,37.9,38,30.05,10.0,Variable,3.5,-,N/A,,Scattered Clouds,0,2013-09-05 20:54:00
5:54 PM,64.0,39.9,41,30.06,10.0,NNW,6.9,-,N/A,,Mostly Cloudy,340,2013-09-05 21:54:00
6:54 PM,60.1,43.0,53,30.08,10.0,Calm,Calm,-,N/A,,Scattered Clouds,0,2013-09-05 22:54:00
7:54 PM,52.0,45.0,77,30.10,10.0,Calm,Calm,-,N/A,,Clear,0,2013-09-05 23:54:00
8:54 PM,48.0,44.1,86,30.13,10.0,Calm,Calm,-,N/A,,Clear,0,2013-09-06 00:54:00
9:54 PM,46.0,43.0,89,30.16,10.0,Calm,Calm,-,N/A,,Clear,0,2013-09-06 01:54:00
10:54 PM,46.0,43.0,89,30.18,10.0,Calm,Calm,-,N/A,,Clear,0,2013-09-06 02:54:00
11:54 PM,44.1,41.0,89,30.19,10.0,Calm,Calm,-,N/A,,Clear,0,2013-09-06 03:54:00